Year,Month,Day,Hour,Minute,Value (Times are PST for temperature in C)
2013,09,02,00,00,15.30
2013,09,02,00,01,15.30
2013,09,02,00,02,15.30
2013,09,02,00,03,15.30
2013,09,02,00,04,15.20
2013,09,02,00,05,15.20
2013,09,02,00,06,15.20
2013,09,02,00,07,15.20
2013,09,02,00,08,15.10
2013,09,02,00,09,15.10
2013,09,02,00,10,15.10
2013,09,02,00,11,15.00
2013,09,02,00,12,15.00
2013,09,02,00,13,15.00
2013,09,02,00,14,15.00
2013,09,02,00,15,15.00
2013,09,02,00,16,15.00
2013,09,02,00,17,15.00
2013,09,02,00,18,15.00
2013,09,02,00,19,15.00
2013,09,02,00,20,15.00
2013,09,02,00,21,15.00
2013,09,02,00,22,15.00
2013,09,02,00,23,15.00
2013,09,02,00,24,15.00
2013,09,02,00,25,15.00
2013,09,02,00,26,15.00
2013,09,02,00,27,15.00
2013,09,02,00,28,15.00
2013,09,02,00,29,15.00
2013,09,02,00,30,15.00
2013,09,02,00,31,15.00
2013,09,02,00,32,15.00
2013,09,02,00,33,15.00
2013,09,02,00,34,15.00
2013,09,02,00,35,15.00
2013,09,02,00,36,15.00
2013,09,02,00,37,15.00
2013,09,02,00,38,15.00
2013,09,02,00,39,15.00
2013,09,02,00,40,15.00
2013,09,02,00,41,15.00
2013,09,02,00,42,15.00
2013,09,02,00,43,15.00
2013,09,02,00,44,15.00
2013,09,02,00,45,15.00
2013,09,02,00,46,14.90
2013,09,02,00,47,14.90
2013,09,02,00,48,14.90
2013,09,02,00,49,14.80
2013,09,02,00,50,14.80
2013,09,02,00,51,14.80
2013,09,02,00,52,14.80
2013,09,02,00,53,14.80
2013,09,02,00,54,14.80
2013,09,02,00,55,14.80
2013,09,02,00,56,14.80
2013,09,02,00,57,14.80
2013,09,02,00,58,14.80
2013,09,02,00,59,14.80
2013,09,02,01,00,14.80
2013,09,02,01,01,14.80
2013,09,02,01,02,14.80
2013,09,02,01,03,14.80
2013,09,02,01,04,14.70
2013,09,02,01,05,14.70
2013,09,02,01,06,14.70
2013,09,02,01,07,14.60
2013,09,02,01,08,14.60
2013,09,02,01,09,14.60
2013,09,02,01,10,14.60
2013,09,02,01,11,14.50
2013,09,02,01,12,14.50
2013,09,02,01,13,14.50
2013,09,02,01,14,14.40
2013,09,02,01,15,14.30
2013,09,02,01,16,14.30
2013,09,02,01,17,14.20
2013,09,02,01,18,14.20
2013,09,02,01,19,14.20
2013,09,02,01,20,14.10
2013,09,02,01,21,14.10
2013,09,02,01,22,14.10
2013,09,02,01,23,14.10
2013,09,02,01,24,14.10
2013,09,02,01,25,14.00
2013,09,02,01,26,14.00
2013,09,02,01,27,14.00
2013,09,02,01,28,14.00
2013,09,02,01,29,14.00
2013,09,02,01,30,14.00
2013,09,02,01,31,13.90
2013,09,02,01,32,13.90
2013,09,02,01,33,13.90
2013,09,02,01,34,13.90
2013,09,02,01,35,13.90
2013,09,02,01,36,13.90
2013,09,02,01,37,13.90
2013,09,02,01,38,13.90
2013,09,02,01,39,13.90
2013,09,02,01,40,13.90
2013,09,02,01,41,13.90
2013,09,02,01,42,13.80
2013,09,02,01,43,13.80
2013,09,02,01,44,13.70
2013,09,02,01,45,13.70
2013,09,02,01,46,13.60
2013,09,02,01,47,13.60
2013,09,02,01,48,13.50
2013,09,02,01,49,13.40
2013,09,02,01,50,13.40
2013,09,02,01,51,13.30
2013,09,02,01,52,13.30
2013,09,02,01,53,13.30
2013,09,02,01,54,13.20
2013,09,02,01,55,13.20
2013,09,02,01,56,13.20
2013,09,02,01,57,13.20
2013,09,02,01,58,13.20
2013,09,02,01,59,13.10
2013,09,02,02,00,13.10
2013,09,02,02,01,13.10
2013,09,02,02,02,13.10
2013,09,02,02,03,13.10
2013,09,02,02,04,13.10
2013,09,02,02,05,13.10
2013,09,02,02,06,13.10
2013,09,02,02,07,13.10
2013,09,02,02,08,13.10
2013,09,02,02,09,13.10
2013,09,02,02,10,13.10
2013,09,02,02,11,13.10
2013,09,02,02,12,13.10
2013,09,02,02,13,13.10
2013,09,02,02,14,13.10
2013,09,02,02,15,13.10
2013,09,02,02,16,13.10
2013,09,02,02,17,13.00
2013,09,02,02,18,13.00
2013,09,02,02,19,13.00
2013,09,02,02,20,12.90
2013,09,02,02,21,12.90
2013,09,02,02,22,12.90
2013,09,02,02,23,12.90
2013,09,02,02,24,12.90
2013,09,02,02,25,12.90
2013,09,02,02,26,12.90
2013,09,02,02,27,12.90
2013,09,02,02,28,12.80
2013,09,02,02,29,12.80
2013,09,02,02,30,12.80
2013,09,02,02,31,12.80
2013,09,02,02,32,12.80
2013,09,02,02,33,12.80
2013,09,02,02,34,12.80
2013,09,02,02,35,12.80
2013,09,02,02,36,12.80
2013,09,02,02,37,12.80
2013,09,02,02,38,12.80
2013,09,02,02,39,12.80
2013,09,02,02,40,12.80
2013,09,02,02,41,12.80
2013,09,02,02,42,12.80
2013,09,02,02,43,12.70
2013,09,02,02,44,12.70
2013,09,02,02,45,12.60
2013,09,02,02,46,12.60
2013,09,02,02,47,12.60
2013,09,02,02,48,12.60
2013,09,02,02,49,12.50
2013,09,02,02,50,12.50
2013,09,02,02,51,12.50
2013,09,02,02,52,12.60
2013,09,02,02,53,12.60
2013,09,02,02,54,12.60
2013,09,02,02,55,12.60
2013,09,02,02,56,12.60
2013,09,02,02,57,12.60
2013,09,02,02,58,12.60
2013,09,02,02,59,12.60
2013,09,02,03,00,12.60
2013,09,02,03,01,12.70
2013,09,02,03,02,12.70
2013,09,02,03,03,12.70
2013,09,02,03,04,12.70
2013,09,02,03,05,12.70
2013,09,02,03,06,12.70
2013,09,02,03,07,12.70
2013,09,02,03,08,12.70
2013,09,02,03,09,12.70
2013,09,02,03,10,12.70
2013,09,02,03,11,12.60
2013,09,02,03,12,12.60
2013,09,02,03,13,12.60
2013,09,02,03,14,12.60
2013,09,02,03,15,12.50
2013,09,02,03,16,12.40
2013,09,02,03,17,12.30
2013,09,02,03,18,12.30
2013,09,02,03,19,12.20
2013,09,02,03,20,12.20
2013,09,02,03,21,12.10
2013,09,02,03,22,12.10
2013,09,02,03,23,12.10
2013,09,02,03,24,12.00
2013,09,02,03,25,12.00
2013,09,02,03,26,12.00
2013,09,02,03,27,12.00
2013,09,02,03,28,12.00
2013,09,02,03,29,12.00
2013,09,02,03,30,12.00
2013,09,02,03,31,12.00
2013,09,02,03,32,12.10
2013,09,02,03,33,12.10
2013,09,02,03,34,12.10
2013,09,02,03,35,12.10
2013,09,02,03,36,12.10
2013,09,02,03,37,12.10
2013,09,02,03,38,12.10
2013,09,02,03,39,12.10
2013,09,02,03,40,12.20
2013,09,02,03,41,12.20
2013,09,02,03,42,12.20
2013,09,02,03,43,12.20
2013,09,02,03,44,12.30
2013,09,02,03,45,12.30
2013,09,02,03,46,12.30
2013,09,02,03,47,12.30
2013,09,02,03,48,12.30
2013,09,02,03,49,12.30
2013,09,02,03,50,12.30
2013,09,02,03,51,12.30
2013,09,02,03,52,12.30
2013,09,02,03,53,12.30
2013,09,02,03,54,12.30
2013,09,02,03,55,12.30
2013,09,02,03,56,12.30
2013,09,02,03,57,12.30
2013,09,02,03,58,12.20
2013,09,02,03,59,12.20
2013,09,02,04,00,12.10
2013,09,02,04,01,12.10
2013,09,02,04,02,12.10
2013,09,02,04,03,12.00
2013,09,02,04,04,12.00
2013,09,02,04,05,12.00
2013,09,02,04,06,11.90
2013,09,02,04,07,12.00
2013,09,02,04,08,12.00
2013,09,02,04,09,12.00
2013,09,02,04,10,12.00
2013,09,02,04,11,12.00
2013,09,02,04,12,12.00
2013,09,02,04,13,12.00
2013,09,02,04,14,12.00
2013,09,02,04,15,12.00
2013,09,02,04,16,12.00
2013,09,02,04,17,12.00
2013,09,02,04,18,12.00
2013,09,02,04,19,12.00
2013,09,02,04,20,12.00
2013,09,02,04,21,12.00
2013,09,02,04,22,12.00
2013,09,02,04,23,12.00
2013,09,02,04,24,12.00
2013,09,02,04,25,12.00
2013,09,02,04,26,12.00
2013,09,02,04,27,12.00
2013,09,02,04,28,12.10
2013,09,02,04,29,12.10
2013,09,02,04,30,12.10
2013,09,02,04,31,12.10
2013,09,02,04,32,12.10
2013,09,02,04,33,12.20
2013,09,02,04,34,12.20
2013,09,02,04,35,12.20
2013,09,02,04,36,12.20
2013,09,02,04,37,12.20
2013,09,02,04,38,12.20
2013,09,02,04,39,12.20
2013,09,02,04,40,12.20
2013,09,02,04,41,12.20
2013,09,02,04,42,12.20
2013,09,02,04,43,12.20
2013,09,02,04,44,12.20
2013,09,02,04,45,12.10
2013,09,02,04,46,12.10
2013,09,02,04,47,12.00
2013,09,02,04,48,11.90
2013,09,02,04,49,11.90
2013,09,02,04,50,11.90
2013,09,02,04,51,11.90
2013,09,02,04,52,11.80
2013,09,02,04,53,11.80
2013,09,02,04,54,11.80
2013,09,02,04,55,11.80
2013,09,02,04,56,11.80
2013,09,02,04,57,11.80
2013,09,02,04,58,11.80
2013,09,02,04,59,11.80
2013,09,02,05,00,11.80
2013,09,02,05,01,11.80
2013,09,02,05,02,11.80
2013,09,02,05,03,11.80
2013,09,02,05,04,11.80
2013,09,02,05,05,11.80
2013,09,02,05,06,11.90
2013,09,02,05,07,11.90
2013,09,02,05,08,11.90
2013,09,02,05,09,11.90
2013,09,02,05,10,12.00
2013,09,02,05,11,12.00
2013,09,02,05,12,12.00
2013,09,02,05,13,12.00
2013,09,02,05,14,12.10
2013,09,02,05,15,12.10
2013,09,02,05,16,12.10
2013,09,02,05,17,12.10
2013,09,02,05,18,12.10
2013,09,02,05,19,12.10
2013,09,02,05,20,12.10
2013,09,02,05,21,12.10
2013,09,02,05,22,12.10
2013,09,02,05,23,12.10
2013,09,02,05,24,12.10
2013,09,02,05,25,12.10
2013,09,02,05,26,12.20
2013,09,02,05,27,12.20
2013,09,02,05,28,12.20
2013,09,02,05,29,12.20
2013,09,02,05,30,12.20
2013,09,02,05,31,12.20
2013,09,02,05,32,12.20
2013,09,02,05,33,12.20
2013,09,02,05,34,12.20
2013,09,02,05,35,12.20
2013,09,02,05,36,12.20
2013,09,02,05,37,12.20
2013,09,02,05,38,12.20
2013,09,02,05,39,12.20
2013,09,02,05,40,12.20
2013,09,02,05,41,12.20
2013,09,02,05,42,12.20
2013,09,02,05,43,12.20
2013,09,02,05,44,12.30
2013,09,02,05,45,12.30
2013,09,02,05,46,12.30
2013,09,02,05,47,12.40
2013,09,02,05,48,12.40
2013,09,02,05,49,12.50
2013,09,02,05,50,12.50
2013,09,02,05,51,12.50
2013,09,02,05,52,12.60
2013,09,02,05,53,12.60
2013,09,02,05,54,12.60
2013,09,02,05,55,12.60
2013,09,02,05,56,12.60
2013,09,02,05,57,12.60
2013,09,02,05,58,12.60
2013,09,02,05,59,12.60
2013,09,02,06,00,12.60
2013,09,02,06,01,12.60
2013,09,02,06,02,12.70
2013,09,02,06,03,12.70
2013,09,02,06,04,12.70
2013,09,02,06,05,12.70
2013,09,02,06,06,12.70
2013,09,02,06,07,12.70
2013,09,02,06,08,12.70
2013,09,02,06,09,12.70
2013,09,02,06,10,12.80
2013,09,02,06,11,12.80
2013,09,02,06,12,12.80
2013,09,02,06,13,12.80
2013,09,02,06,14,12.80
2013,09,02,06,15,12.90
2013,09,02,06,16,12.90
2013,09,02,06,17,12.90
2013,09,02,06,18,12.90
2013,09,02,06,19,12.90
2013,09,02,06,20,12.90
2013,09,02,06,21,12.80
2013,09,02,06,22,12.80
2013,09,02,06,23,12.80
2013,09,02,06,24,12.80
2013,09,02,06,25,12.80
2013,09,02,06,26,12.80
2013,09,02,06,27,12.80
2013,09,02,06,28,12.80
2013,09,02,06,29,12.80
2013,09,02,06,30,12.90
2013,09,02,06,31,12.90
2013,09,02,06,32,12.90
2013,09,02,06,33,12.90
2013,09,02,06,34,12.90
2013,09,02,06,35,13.00
2013,09,02,06,36,13.00
2013,09,02,06,37,13.00
2013,09,02,06,38,13.00
2013,09,02,06,39,13.00
2013,09,02,06,40,13.00
2013,09,02,06,41,13.00
2013,09,02,06,42,13.10
2013,09,02,06,43,13.00
2013,09,02,06,44,13.00
2013,09,02,06,45,13.00
2013,09,02,06,46,13.00
2013,09,02,06,47,12.90
2013,09,02,06,48,12.90
2013,09,02,06,49,12.90
2013,09,02,06,50,12.90
2013,09,02,06,51,12.90
2013,09,02,06,52,12.90
2013,09,02,06,53,12.90
2013,09,02,06,54,12.90
2013,09,02,06,55,12.90
2013,09,02,06,56,12.80
2013,09,02,06,57,12.80
2013,09,02,06,58,12.80
2013,09,02,06,59,12.80
2013,09,02,07,00,12.80
2013,09,02,07,01,12.80
2013,09,02,07,02,12.90
2013,09,02,07,03,12.90
2013,09,02,07,04,12.90
2013,09,02,07,05,12.90
2013,09,02,07,06,12.90
2013,09,02,07,07,12.90
2013,09,02,07,08,13.00
2013,09,02,07,09,13.00
2013,09,02,07,10,13.00
2013,09,02,07,11,13.00
2013,09,02,07,12,13.10
2013,09,02,07,13,13.10
2013,09,02,07,14,13.10
2013,09,02,07,15,13.10
2013,09,02,07,16,13.10
2013,09,02,07,17,13.20
2013,09,02,07,18,13.20
2013,09,02,07,19,13.20
2013,09,02,07,20,13.20
2013,09,02,07,21,13.20
2013,09,02,07,22,13.20
2013,09,02,07,23,13.20
2013,09,02,07,24,13.20
2013,09,02,07,25,13.20
2013,09,02,07,26,13.20
2013,09,02,07,27,13.20
2013,09,02,07,28,13.20
2013,09,02,07,29,13.20
2013,09,02,07,30,13.20
2013,09,02,07,31,13.20
2013,09,02,07,32,13.30
2013,09,02,07,33,13.30
2013,09,02,07,34,13.30
2013,09,02,07,35,13.30
2013,09,02,07,36,13.30
2013,09,02,07,37,13.30
2013,09,02,07,38,13.40
2013,09,02,07,39,13.40
2013,09,02,07,40,13.40
2013,09,02,07,41,13.40
2013,09,02,07,42,13.40
2013,09,02,07,43,13.40
2013,09,02,07,44,13.40
2013,09,02,07,45,13.40
2013,09,02,07,46,13.40
2013,09,02,07,47,13.40
2013,09,02,07,48,13.40
2013,09,02,07,49,13.40
2013,09,02,07,50,13.40
2013,09,02,07,51,13.40
2013,09,02,07,52,13.40
2013,09,02,07,53,13.40
2013,09,02,07,54,13.40
2013,09,02,07,55,13.40
2013,09,02,07,56,13.40
2013,09,02,07,57,13.50
2013,09,02,07,58,13.50
2013,09,02,07,59,13.50
2013,09,02,08,00,13.50
2013,09,02,08,01,13.50
2013,09,02,08,02,13.50
2013,09,02,08,03,13.60
2013,09,02,08,04,13.60
2013,09,02,08,05,13.60
2013,09,02,08,06,13.60
2013,09,02,08,07,13.60
2013,09,02,08,08,13.70
2013,09,02,08,09,13.70
2013,09,02,08,10,13.70
2013,09,02,08,11,13.70
2013,09,02,08,12,13.70
2013,09,02,08,13,13.70
2013,09,02,08,14,13.80
2013,09,02,08,15,13.80
2013,09,02,08,16,13.80
2013,09,02,08,17,13.80
2013,09,02,08,18,13.80
2013,09,02,08,19,13.80
2013,09,02,08,20,13.80
2013,09,02,08,21,13.80
2013,09,02,08,22,13.80
2013,09,02,08,23,13.80
2013,09,02,08,24,13.90
2013,09,02,08,25,13.90
2013,09,02,08,26,13.90
2013,09,02,08,27,13.90
2013,09,02,08,28,13.90
2013,09,02,08,29,13.90
2013,09,02,08,30,13.90
2013,09,02,08,31,13.90
2013,09,02,08,32,13.90
2013,09,02,08,33,13.90
2013,09,02,08,34,14.00
2013,09,02,08,35,14.00
2013,09,02,08,36,14.00
2013,09,02,08,37,14.00
2013,09,02,08,38,14.00
2013,09,02,08,39,14.10
2013,09,02,08,40,14.10
2013,09,02,08,41,14.10
2013,09,02,08,42,14.10
2013,09,02,08,43,14.10
2013,09,02,08,44,14.10
2013,09,02,08,45,14.10
2013,09,02,08,46,14.10
2013,09,02,08,47,14.10
2013,09,02,08,48,14.10
2013,09,02,08,49,14.20
2013,09,02,08,50,14.20
2013,09,02,08,51,14.20
2013,09,02,08,52,14.20
2013,09,02,08,53,14.20
2013,09,02,08,54,14.20
2013,09,02,08,55,14.20
2013,09,02,08,56,14.20
2013,09,02,08,57,14.20
2013,09,02,08,58,14.30
2013,09,02,08,59,14.30
2013,09,02,09,00,14.30
2013,09,02,09,01,14.30
2013,09,02,09,02,14.30
2013,09,02,09,03,14.30
2013,09,02,09,04,14.30
2013,09,02,09,05,14.30
2013,09,02,09,06,14.30
2013,09,02,09,07,14.30
2013,09,02,09,08,14.30
2013,09,02,09,09,14.40
2013,09,02,09,10,14.40
2013,09,02,09,11,14.40
2013,09,02,09,12,14.40
2013,09,02,09,13,14.40
2013,09,02,09,14,14.50
2013,09,02,09,15,14.50
2013,09,02,09,16,14.50
2013,09,02,09,17,14.60
2013,09,02,09,18,14.60
2013,09,02,09,19,14.60
2013,09,02,09,20,14.60
2013,09,02,09,21,14.60
2013,09,02,09,22,14.70
2013,09,02,09,23,14.70
2013,09,02,09,24,14.70
2013,09,02,09,25,14.70
2013,09,02,09,26,14.70
2013,09,02,09,27,14.70
2013,09,02,09,28,14.70
2013,09,02,09,29,14.70
2013,09,02,09,30,14.70
2013,09,02,09,31,14.70
2013,09,02,09,32,14.70
2013,09,02,09,33,14.70
2013,09,02,09,34,14.70
2013,09,02,09,35,14.70
2013,09,02,09,36,14.70
2013,09,02,09,37,14.70
2013,09,02,09,38,14.70
2013,09,02,09,39,14.70
2013,09,02,09,40,14.70
2013,09,02,09,41,14.70
2013,09,02,09,42,14.70
2013,09,02,09,43,14.70
2013,09,02,09,44,14.80
2013,09,02,09,45,14.80
2013,09,02,09,46,14.80
2013,09,02,09,47,14.80
2013,09,02,09,48,14.90
2013,09,02,09,49,14.90
2013,09,02,09,50,14.90
2013,09,02,09,51,14.90
2013,09,02,09,52,14.90
2013,09,02,09,53,14.80
2013,09,02,09,54,14.90
2013,09,02,09,55,14.90
2013,09,02,09,56,14.90
2013,09,02,09,57,14.90
2013,09,02,09,58,14.90
2013,09,02,09,59,14.90
2013,09,02,10,00,15.00
2013,09,02,10,01,15.00
2013,09,02,10,02,15.00
2013,09,02,10,03,15.00
2013,09,02,10,04,15.00
2013,09,02,10,05,15.00
2013,09,02,10,06,15.00
2013,09,02,10,07,15.00
2013,09,02,10,08,15.00
2013,09,02,10,09,15.00
2013,09,02,10,10,15.00
2013,09,02,10,11,15.00
2013,09,02,10,12,15.00
2013,09,02,10,13,15.00
2013,09,02,10,14,15.00
2013,09,02,10,15,15.00
2013,09,02,10,16,15.00
2013,09,02,10,17,15.00
2013,09,02,10,18,15.00
2013,09,02,10,19,15.00
2013,09,02,10,20,15.00
2013,09,02,10,21,15.00
2013,09,02,10,22,15.00
2013,09,02,10,23,15.10
2013,09,02,10,24,15.10
2013,09,02,10,25,15.20
2013,09,02,10,26,15.10
2013,09,02,10,27,15.10
2013,09,02,10,28,15.10
2013,09,02,10,29,15.20
2013,09,02,10,30,15.20
2013,09,02,10,31,15.20
2013,09,02,10,32,15.20
2013,09,02,10,33,15.10
2013,09,02,10,34,15.10
2013,09,02,10,35,15.20
2013,09,02,10,36,15.10
2013,09,02,10,37,15.20
2013,09,02,10,38,15.20
2013,09,02,10,39,15.20
2013,09,02,10,40,15.20
2013,09,02,10,41,15.20
2013,09,02,10,42,15.30
2013,09,02,10,43,15.30
2013,09,02,10,44,15.20
2013,09,02,10,45,15.20
2013,09,02,10,46,15.20
2013,09,02,10,47,15.20
2013,09,02,10,48,15.20
2013,09,02,10,49,15.20
2013,09,02,10,50,15.30
2013,09,02,10,51,15.30
2013,09,02,10,52,15.30
2013,09,02,10,53,15.30
2013,09,02,10,54,15.30
2013,09,02,10,55,15.30
2013,09,02,10,56,15.40
2013,09,02,10,57,15.40
2013,09,02,10,58,15.40
2013,09,02,10,59,15.40
2013,09,02,11,00,15.40
2013,09,02,11,01,15.40
2013,09,02,11,02,15.40
2013,09,02,11,03,15.50
2013,09,02,11,04,15.50
2013,09,02,11,05,15.50
2013,09,02,11,06,15.60
2013,09,02,11,07,15.60
2013,09,02,11,08,15.60
2013,09,02,11,09,15.60
2013,09,02,11,10,15.60
2013,09,02,11,11,15.50
2013,09,02,11,12,15.50
2013,09,02,11,13,15.50
2013,09,02,11,14,15.50
2013,09,02,11,15,15.60
2013,09,02,11,16,15.60
2013,09,02,11,17,15.60
2013,09,02,11,18,15.60
2013,09,02,11,19,15.60
2013,09,02,11,20,15.60
2013,09,02,11,21,15.60
2013,09,02,11,22,15.60
2013,09,02,11,23,15.60
2013,09,02,11,24,15.60
2013,09,02,11,25,15.60
2013,09,02,11,26,15.60
2013,09,02,11,27,15.70
2013,09,02,11,28,15.70
2013,09,02,11,29,15.70
2013,09,02,11,30,15.70
2013,09,02,11,31,15.70
2013,09,02,11,32,15.80
2013,09,02,11,33,15.80
2013,09,02,11,34,15.80
2013,09,02,11,35,15.80
2013,09,02,11,36,15.80
2013,09,02,11,37,15.80
2013,09,02,11,38,15.90
2013,09,02,11,39,15.90
2013,09,02,11,40,15.90
2013,09,02,11,41,15.90
2013,09,02,11,42,16.00
2013,09,02,11,43,16.00
2013,09,02,11,44,16.00
2013,09,02,11,45,16.10
2013,09,02,11,46,16.10
2013,09,02,11,47,16.10
2013,09,02,11,48,16.10
2013,09,02,11,49,16.10
2013,09,02,11,50,16.20
2013,09,02,11,51,16.20
2013,09,02,11,52,16.30
2013,09,02,11,53,16.40
2013,09,02,11,54,16.40
2013,09,02,11,55,16.40
2013,09,02,11,56,16.40
2013,09,02,11,57,16.50
2013,09,02,11,58,16.50
2013,09,02,11,59,16.50
2013,09,02,12,00,16.50
2013,09,02,12,01,16.50
2013,09,02,12,02,16.60
2013,09,02,12,03,16.50
2013,09,02,12,04,16.60
2013,09,02,12,05,16.70
2013,09,02,12,06,16.80
2013,09,02,12,07,16.80
2013,09,02,12,08,16.80
2013,09,02,12,09,16.80
2013,09,02,12,10,16.80
2013,09,02,12,11,16.90
2013,09,02,12,12,16.90
2013,09,02,12,13,16.90
2013,09,02,12,14,16.90
2013,09,02,12,15,16.90
2013,09,02,12,16,16.90
2013,09,02,12,17,16.90
2013,09,02,12,18,17.00
2013,09,02,12,19,17.00
2013,09,02,12,20,17.10
2013,09,02,12,21,17.10
2013,09,02,12,22,17.00
2013,09,02,12,23,17.00
2013,09,02,12,24,17.20
2013,09,02,12,25,17.30
2013,09,02,12,26,17.40
2013,09,02,12,27,17.50
2013,09,02,12,28,17.50
2013,09,02,12,29,17.50
2013,09,02,12,30,17.50
2013,09,02,12,31,17.50
2013,09,02,12,32,17.60
2013,09,02,12,33,17.60
2013,09,02,12,34,17.70
2013,09,02,12,35,17.70
2013,09,02,12,36,17.80
2013,09,02,12,37,17.80
2013,09,02,12,38,17.80
2013,09,02,12,39,17.90
2013,09,02,12,40,18.00
2013,09,02,12,41,18.00
2013,09,02,12,42,18.10
2013,09,02,12,43,18.20
2013,09,02,12,44,18.20
2013,09,02,12,45,18.30
2013,09,02,12,46,18.30
2013,09,02,12,47,18.30
2013,09,02,12,48,18.40
2013,09,02,12,49,18.50
2013,09,02,12,50,18.60
2013,09,02,12,51,18.60
2013,09,02,12,52,18.70
2013,09,02,12,53,18.80
2013,09,02,12,54,18.90
2013,09,02,12,55,18.90
2013,09,02,12,56,19.00
2013,09,02,12,57,19.00
2013,09,02,12,58,19.10
2013,09,02,12,59,19.30
2013,09,02,13,00,19.30
2013,09,02,13,01,19.40
2013,09,02,13,02,19.50
2013,09,02,13,03,19.60
2013,09,02,13,04,19.60
2013,09,02,13,05,19.70
2013,09,02,13,06,19.80
2013,09,02,13,07,19.90
2013,09,02,13,08,20.10
2013,09,02,13,09,20.20
2013,09,02,13,10,20.30
2013,09,02,13,11,20.40
2013,09,02,13,12,20.50
2013,09,02,13,13,20.60
2013,09,02,13,14,20.60
2013,09,02,13,15,20.70
2013,09,02,13,16,20.70
2013,09,02,13,17,20.80
2013,09,02,13,18,20.80
2013,09,02,13,19,20.90
2013,09,02,13,20,21.00
2013,09,02,13,21,21.10
2013,09,02,13,22,21.10
2013,09,02,13,23,21.10
2013,09,02,13,24,21.20
2013,09,02,13,25,21.30
2013,09,02,13,26,21.20
2013,09,02,13,27,21.30
2013,09,02,13,28,21.20
2013,09,02,13,29,21.20
2013,09,02,13,30,21.20
2013,09,02,13,31,21.20
2013,09,02,13,32,21.20
2013,09,02,13,33,21.20
2013,09,02,13,34,21.20
2013,09,02,13,35,21.20
2013,09,02,13,36,21.20
2013,09,02,13,37,21.20
2013,09,02,13,38,21.20
2013,09,02,13,39,21.20
2013,09,02,13,40,21.20
2013,09,02,13,41,21.20
2013,09,02,13,42,21.30
2013,09,02,13,43,21.40
2013,09,02,13,44,21.50
2013,09,02,13,45,21.60
2013,09,02,13,46,21.70
2013,09,02,13,47,21.70
2013,09,02,13,48,21.80
2013,09,02,13,49,21.80
2013,09,02,13,50,21.80
2013,09,02,13,51,21.80
2013,09,02,13,52,21.80
2013,09,02,13,53,21.90
2013,09,02,13,54,22.00
2013,09,02,13,55,21.90
2013,09,02,13,56,21.80
2013,09,02,13,57,21.80
2013,09,02,13,58,21.80
2013,09,02,13,59,21.80
2013,09,02,14,00,21.80
2013,09,02,14,01,21.90
2013,09,02,14,02,22.10
2013,09,02,14,03,22.20
2013,09,02,14,04,22.20
2013,09,02,14,05,22.10
2013,09,02,14,06,21.90
2013,09,02,14,07,21.90
2013,09,02,14,08,21.90
2013,09,02,14,09,21.90
2013,09,02,14,10,22.00
2013,09,02,14,11,22.00
2013,09,02,14,12,22.10
2013,09,02,14,13,22.10
2013,09,02,14,14,22.10
2013,09,02,14,15,22.00
2013,09,02,14,16,21.90
2013,09,02,14,17,21.90
2013,09,02,14,18,21.90
2013,09,02,14,19,21.90
2013,09,02,14,20,21.90
2013,09,02,14,21,22.00
2013,09,02,14,22,22.10
2013,09,02,14,23,22.20
2013,09,02,14,24,22.40
2013,09,02,14,25,22.40
2013,09,02,14,26,22.30
2013,09,02,14,27,22.40
2013,09,02,14,28,22.40
2013,09,02,14,29,22.50
2013,09,02,14,30,22.40
2013,09,02,14,31,22.40
2013,09,02,14,32,22.40
2013,09,02,14,33,22.40
2013,09,02,14,34,22.40
2013,09,02,14,35,22.40
2013,09,02,14,36,22.40
2013,09,02,14,37,22.40
2013,09,02,14,38,22.40
2013,09,02,14,39,22.40
2013,09,02,14,40,22.30
2013,09,02,14,41,22.30
2013,09,02,14,42,22.40
2013,09,02,14,43,22.40
2013,09,02,14,44,22.50
2013,09,02,14,45,22.50
2013,09,02,14,46,22.60
2013,09,02,14,47,22.60
2013,09,02,14,48,22.60
2013,09,02,14,49,22.60
2013,09,02,14,50,22.60
2013,09,02,14,51,22.60
2013,09,02,14,52,22.60
2013,09,02,14,53,22.70
2013,09,02,14,54,22.70
2013,09,02,14,55,22.60
2013,09,02,14,56,22.60
2013,09,02,14,57,22.70
2013,09,02,14,58,22.80
2013,09,02,14,59,22.90
2013,09,02,15,00,22.90
2013,09,02,15,01,22.90
2013,09,02,15,02,22.90
2013,09,02,15,03,22.90
2013,09,02,15,04,22.90
2013,09,02,15,05,22.80
2013,09,02,15,06,22.80
2013,09,02,15,07,22.80
2013,09,02,15,08,22.80
2013,09,02,15,09,22.80
2013,09,02,15,10,22.70
2013,09,02,15,11,22.60
2013,09,02,15,12,22.40
2013,09,02,15,13,22.30
2013,09,02,15,14,22.30
2013,09,02,15,15,22.30
2013,09,02,15,16,22.20
2013,09,02,15,17,22.10
2013,09,02,15,18,22.10
2013,09,02,15,19,22.10
2013,09,02,15,20,22.20
2013,09,02,15,21,22.30
2013,09,02,15,22,22.20
2013,09,02,15,23,22.20
2013,09,02,15,24,22.30
2013,09,02,15,25,22.30
2013,09,02,15,26,22.40
2013,09,02,15,27,22.30
2013,09,02,15,28,22.30
2013,09,02,15,29,22.20
2013,09,02,15,30,22.20
2013,09,02,15,31,22.20
2013,09,02,15,32,22.00
2013,09,02,15,33,21.90
2013,09,02,15,34,21.80
2013,09,02,15,35,21.80
2013,09,02,15,36,21.70
2013,09,02,15,37,21.50
2013,09,02,15,38,21.40
2013,09,02,15,39,21.40
2013,09,02,15,40,21.40
2013,09,02,15,41,21.40
2013,09,02,15,42,21.40
2013,09,02,15,43,21.40
2013,09,02,15,44,21.40
2013,09,02,15,45,21.40
2013,09,02,15,46,21.20
2013,09,02,15,47,21.20
2013,09,02,15,48,21.10
2013,09,02,15,49,21.00
2013,09,02,15,50,20.90
2013,09,02,15,51,20.80
2013,09,02,15,52,20.80
2013,09,02,15,53,20.80
2013,09,02,15,54,20.90
2013,09,02,15,55,21.00
2013,09,02,15,56,21.00
2013,09,02,15,57,21.00
2013,09,02,15,58,21.00
2013,09,02,15,59,21.10
2013,09,02,16,00,21.10
2013,09,02,16,01,21.10
2013,09,02,16,02,21.20
2013,09,02,16,03,21.20
2013,09,02,16,04,21.20
2013,09,02,16,05,21.20
2013,09,02,16,06,21.10
2013,09,02,16,07,21.10
2013,09,02,16,08,21.00
2013,09,02,16,09,20.90
2013,09,02,16,10,20.80
2013,09,02,16,11,20.80
2013,09,02,16,12,20.90
2013,09,02,16,13,21.00
2013,09,02,16,14,21.10
2013,09,02,16,15,21.20
2013,09,02,16,16,21.20
2013,09,02,16,17,21.10
2013,09,02,16,18,21.00
2013,09,02,16,19,21.00
2013,09,02,16,20,21.10
2013,09,02,16,21,21.10
2013,09,02,16,22,21.10
2013,09,02,16,23,21.10
2013,09,02,16,24,21.20
2013,09,02,16,25,21.30
2013,09,02,16,26,21.30
2013,09,02,16,27,21.40
2013,09,02,16,28,21.60
2013,09,02,16,29,21.60
2013,09,02,16,30,21.70
2013,09,02,16,31,21.70
2013,09,02,16,32,21.80
2013,09,02,16,33,21.80
2013,09,02,16,34,21.80
2013,09,02,16,35,21.70
2013,09,02,16,36,21.70
2013,09,02,16,37,21.70
2013,09,02,16,38,21.60
2013,09,02,16,39,21.70
2013,09,02,16,40,21.70
2013,09,02,16,41,21.70
2013,09,02,16,42,21.80
2013,09,02,16,43,21.80
2013,09,02,16,44,21.80
2013,09,02,16,45,21.80
2013,09,02,16,46,21.80
2013,09,02,16,47,21.80
2013,09,02,16,48,21.80
2013,09,02,16,49,21.80
2013,09,02,16,50,21.80
2013,09,02,16,51,21.80
2013,09,02,16,52,21.70
2013,09,02,16,53,21.60
2013,09,02,16,54,21.60
2013,09,02,16,55,21.60
2013,09,02,16,56,21.70
2013,09,02,16,57,21.70
2013,09,02,16,58,21.70
2013,09,02,16,59,21.60
2013,09,02,17,00,21.60
2013,09,02,17,01,21.50
2013,09,02,17,02,21.50
2013,09,02,17,03,21.40
2013,09,02,17,04,21.30
2013,09,02,17,05,21.40
2013,09,02,17,06,21.40
2013,09,02,17,07,21.50
2013,09,02,17,08,21.50
2013,09,02,17,09,21.60
2013,09,02,17,10,21.60
2013,09,02,17,11,21.70
2013,09,02,17,12,21.80
2013,09,02,17,13,21.70
2013,09,02,17,14,21.70
2013,09,02,17,15,21.80
2013,09,02,17,16,21.80
2013,09,02,17,17,21.80
2013,09,02,17,18,21.90
2013,09,02,17,19,21.90